When you browse on this site, cookies collect data to enhance your experience and personalize the content and advertising you see.
Visit our Privacy Policy to learn more. By continuing to use the site, you agree to this use of cookies and data.
  • Em Portugal
  • Lista de países
  • Para 7 dias
  • Temperatura da água
  • Mapa do tempo
  • Widgets de tempo
  • user-avatar
    Iniciar Sessão

    Previsão horária em Stepuzhichi

    Hoje, 19 Setembro, Quinta-feira

    Tempo Temperatura Precipitação Vento Pressão Humidade
    00:00 +6°C° 0 mm 5 m/s 742 mmHg 91%
    01:00 +6°C° 0 mm 5 m/s 742 mmHg 91%
    02:00 +6°C° 0 mm 5 m/s 742 mmHg 91%
    03:00 +6°C° 0 mm 5 m/s 743 mmHg 91%
    04:00 +6°C° 0 mm 5 m/s 743 mmHg 90%
    05:00 +6°C° 0 mm 5 m/s 743 mmHg 89%
    06:00 +6°C° 0.1 mm 5 m/s 744 mmHg 89%
    07:00 +6°C° 0.1 mm 5 m/s 744 mmHg 89%
    08:00 +6°C° 0.1 mm 5 m/s 744 mmHg 90%
    09:00 +7°C° 0 mm 5 m/s 744 mmHg 87%
    10:00 +7°C° 0 mm 5 m/s 745 mmHg 84%
    11:00 +8°C° 0 mm 5 m/s 745 mmHg 82%
    12:00 +10°C° 0 mm 4 m/s 745 mmHg 77%
    13:00 +10°C° 0 mm 4 m/s 745 mmHg 72%
    14:00 +11°C° 0 mm 4 m/s 745 mmHg 67%
    15:00 +11°C° 0 mm 3 m/s 745 mmHg 67%
    16:00 +11°C° 0 mm 3 m/s 745 mmHg 67%
    17:00 +13°C° 0 mm 2 m/s 745 mmHg 67%
    18:00 +10°C° 0 mm 2 m/s 745 mmHg 72%
    19:00 +9°C° 0 mm 2 m/s 745 mmHg 78%
    20:00 +7°C° 0 mm 3 m/s 745 mmHg 83%
    21:00 +7°C° 0 mm 3 m/s 745 mmHg 85%
    22:00 +7°C° 0 mm 3 m/s 745 mmHg 87%
    23:00 +5°C° 0 mm 3 m/s 745 mmHg 89%

    Amanhã, 20 Setembro, Sexta-feira

    Tempo Temperatura Precipitação Vento Pressão Humidade
    00:00 +5°C° 0 mm 3 m/s 745 mmHg 91%
    01:00 +5°C° 0 mm 4 m/s 745 mmHg 93%
    02:00 +4°C° 0 mm 4 m/s 745 mmHg 94%
    03:00 +5°C° 0 mm 5 m/s 745 mmHg 92%
    04:00 +5°C° 0 mm 5 m/s 745 mmHg 90%
    05:00 +4°C° 0 mm 6 m/s 746 mmHg 89%
    06:00 +4°C° 0 mm 6 m/s 746 mmHg 85%
    07:00 +4°C° 0 mm 6 m/s 746 mmHg 82%
    08:00 +4°C° 0 mm 6 m/s 746 mmHg 79%
    09:00 +5°C° 0 mm 6 m/s 746 mmHg 75%
    10:00 +7°C° 0 mm 6 m/s 747 mmHg 70%
    11:00 +8°C° 0 mm 6 m/s 747 mmHg 65%
    12:00 +9°C° 0 mm 6 m/s 747 mmHg 61%
    13:00 +9°C° 0 mm 6 m/s 747 mmHg 57%
    14:00 +10°C° 0 mm 6 m/s 747 mmHg 53%
    15:00 +9°C° 0.1 mm 6 m/s 747 mmHg 55%
    16:00 +9°C° 0.1 mm 5 m/s 747 mmHg 57%
    17:00 +8°C° 0.1 mm 4 m/s 747 mmHg 58%
    18:00 +7°C° 0 mm 4 m/s 748 mmHg 63%
    19:00 +7°C° 0 mm 3 m/s 748 mmHg 67%
    20:00 +4°C° 0 mm 3 m/s 748 mmHg 72%
    21:00 +5°C° 0 mm 2 m/s 748 mmHg 75%
    22:00 +4°C° 0 mm 2 m/s 749 mmHg 78%
    23:00 +4°C° 0 mm 2 m/s 749 mmHg 81%

    Depois de amanhã, 21 Setembro, Sábado

    Tempo Temperatura Precipitação Vento Pressão Humidade
    00:00 +4°C° 0 mm 2 m/s 749 mmHg 81%
    01:00 +4°C° 0 mm 2 m/s 749 mmHg 81%
    02:00 +4°C° 0 mm 2 m/s 749 mmHg 81%
    03:00 +3°C° 0 mm 3 m/s 748 mmHg 79%
    04:00 +3°C° 0 mm 3 m/s 748 mmHg 77%
    05:00 +4°C° 0 mm 3 m/s 748 mmHg 76%
    06:00 +4°C° 0 mm 4 m/s 747 mmHg 76%
    07:00 +5°C° 0 mm 4 m/s 747 mmHg 75%
    08:00 +6°C° 0 mm 5 m/s 747 mmHg 75%
    09:00 +5°C° 0.7 mm 6 m/s 746 mmHg 81%
    10:00 +7°C° 0.7 mm 6 m/s 746 mmHg 87%
    11:00 +7°C° 0.7 mm 6 m/s 746 mmHg 93%
    12:00 +8°C° 0.2 mm 7 m/s 745 mmHg 92%
    13:00 +9°C° 0.2 mm 7 m/s 745 mmHg 92%
    14:00 +9°C° 0.2 mm 7 m/s 745 mmHg 91%
    15:00 +10°C° 0 mm 7 m/s 745 mmHg 90%
    16:00 +11°C° 0 mm 6 m/s 745 mmHg 89%
    17:00 +11°C° 0 mm 6 m/s 745 mmHg 88%
    18:00 +11°C° 0 mm 6 m/s 745 mmHg 89%
    19:00 +10°C° 0 mm 6 m/s 745 mmHg 91%
    20:00 +10°C° 0 mm 6 m/s 745 mmHg 92%
    21:00 +10°C° 0 mm 5 m/s 745 mmHg 92%
    22:00 +9°C° 0 mm 5 m/s 745 mmHg 93%
    23:00 +9°C° 0 mm 5 m/s 745 mmHg 93%

    22 Setembro, Domingo

    Tempo Temperatura Precipitação Vento Pressão Humidade
    00:00 +9°C° 0 mm 5 m/s 745 mmHg 94%
    01:00 +9°C° 0 mm 5 m/s 745 mmHg 94%
    02:00 +8°C° 0 mm 5 m/s 745 mmHg 95%
    03:00 +8°C° 0 mm 5 m/s 745 mmHg 94%
    04:00 +9°C° 0 mm 5 m/s 745 mmHg 93%
    05:00 +9°C° 0 mm 5 m/s 745 mmHg 92%
    06:00 +9°C° 0 mm 5 m/s 745 mmHg 92%
    07:00 +9°C° 0 mm 5 m/s 745 mmHg 91%
    08:00 +9°C° 0 mm 5 m/s 745 mmHg 90%
    09:00 +12°C° 0 mm 5 m/s 745 mmHg 85%
    10:00 +13°C° 0 mm 5 m/s 745 mmHg 80%
    11:00 +15°C° 0 mm 5 m/s 745 mmHg 75%
    12:00 +15°C° 0 mm 5 m/s 745 mmHg 72%
    13:00 +16°C° 0 mm 5 m/s 745 mmHg 69%
    14:00 +17°C° 0 mm 5 m/s 745 mmHg 66%
    15:00 +17°C° 0 mm 4 m/s 745 mmHg 69%
    16:00 +15°C° 0 mm 4 m/s 745 mmHg 73%
    17:00 +14°C° 0 mm 3 m/s 745 mmHg 76%
    18:00 +13°C° 0 mm 3 m/s 746 mmHg 79%
    19:00 +11°C° 0 mm 3 m/s 746 mmHg 83%
    20:00 +9°C° 0 mm 2 m/s 746 mmHg 86%
    21:00 +9°C° 0 mm 2 m/s 746 mmHg 82%
    22:00 +8°C° 0 mm 2 m/s 746 mmHg 78%
    23:00 +7°C° 0 mm 3 m/s 747 mmHg 74%

    23 Setembro, Segunda-feira

    Tempo Temperatura Precipitação Vento Pressão Humidade
    00:00 +7°C° 0 mm 3 m/s 747 mmHg 72%
    01:00 +5°C° 0 mm 3 m/s 747 mmHg 71%
    02:00 +5°C° 0 mm 3 m/s 747 mmHg 70%
    03:00 +5°C° 0 mm 3 m/s 746 mmHg 73%
    04:00 +5°C° 0 mm 3 m/s 746 mmHg 75%
    05:00 +4°C° 0 mm 3 m/s 745 mmHg 78%
    06:00 +5°C° 0 mm 4 m/s 745 mmHg 77%
    07:00 +6°C° 0 mm 4 m/s 745 mmHg 76%
    08:00 +7°C° 0 mm 5 m/s 745 mmHg 74%
    09:00 +9°C° 0 mm 5 m/s 744 mmHg 73%
    10:00 +10°C° 0 mm 5 m/s 744 mmHg 71%
    11:00 +13°C° 0 mm 5 m/s 743 mmHg 70%
    12:00 +14°C° 0 mm 5 m/s 743 mmHg 68%
    13:00 +15°C° 0 mm 5 m/s 742 mmHg 66%
    14:00 +16°C° 0 mm 5 m/s 741 mmHg 64%
    15:00 +17°C° 0 mm 4 m/s 741 mmHg 68%
    16:00 +15°C° 0 mm 4 m/s 740 mmHg 71%
    17:00 +14°C° 0 mm 3 m/s 740 mmHg 74%
    18:00 +13°C° 0.2 mm 3 m/s 739 mmHg 79%
    19:00 +13°C° 0.2 mm 3 m/s 739 mmHg 83%
    20:00 +12°C° 0.2 mm 3 m/s 738 mmHg 88%
    21:00 +12°C° 0 mm 2 m/s 738 mmHg 89%
    22:00 +12°C° 0 mm 2 m/s 738 mmHg 91%
    23:00 +12°C° 0 mm 2 m/s 737 mmHg 92%

    24 Setembro, Terça-feira

    Tempo Temperatura Precipitação Vento Pressão Humidade
    00:00 +12°C° 0 mm 1 m/s 737 mmHg 93%
    01:00 +11°C° 0 mm 1 m/s 737 mmHg 93%
    02:00 +11°C° 0 mm 1 m/s 736 mmHg 94%
    03:00 +11°C° 0 mm 1 m/s 736 mmHg 94%
    04:00 +10°C° 0 mm 0 m/s 736 mmHg 95%
    05:00 +10°C° 0 mm 0 m/s 736 mmHg 95%
    06:00 +10°C° 0 mm 0 m/s 736 mmHg 94%
    07:00 +12°C° 0 mm 1 m/s 736 mmHg 92%
    08:00 +12°C° 0 mm 1 m/s 736 mmHg 91%
    09:00 +13°C° 0 mm 1 m/s 736 mmHg 86%
    10:00 +14°C° 0 mm 1 m/s 736 mmHg 81%
    11:00 +15°C° 0 mm 1 m/s 737 mmHg 76%
    12:00 +16°C° 0 mm 1 m/s 737 mmHg 75%
    13:00 +16°C° 0 mm 2 m/s 737 mmHg 74%
    14:00 +16°C° 0 mm 2 m/s 737 mmHg 73%
    15:00 +16°C° 0 mm 2 m/s 737 mmHg 74%
    16:00 +16°C° 0 mm 2 m/s 737 mmHg 75%
    17:00 +15°C° 0 mm 2 m/s 737 mmHg 76%
    18:00 +15°C° 0 mm 2 m/s 737 mmHg 77%
    19:00 +14°C° 0 mm 1 m/s 738 mmHg 78%
    20:00 +14°C° 0 mm 1 m/s 738 mmHg 79%
    21:00 +13°C° 0 mm 1 m/s 738 mmHg 80%
    22:00 +13°C° 0 mm 1 m/s 738 mmHg 82%
    23:00 +11°C° 0 mm 0 m/s 738 mmHg 83%
    Mostrar mais